STARLINK-1837 (47128 NORAD) Tracking and Keplerian Element Data
This shows tracking and keplerian element data for the satellite.
Feedback or suggestion? Click here.
Element | Value |
Catalog | 47128 |
Name | STARLINK-1837 |
Epoch Orbit | 1594 |
Epoch Day | 60.91667824 |
Epoch Year | 2021 |
RAAN | 239.4939 |
Inclination | 53.0505 |
Eccentricity | 0.0004846 |
Argument of Perigee | 283.7936 |
Mean Anonmoly | 200.4111 |
Mean Motion | 15.46071346 |
Decay Rate | -0.00494764 |
L1 | 1 47128U 20088G 21060.91667824 -.00494764 00000-0 -10587-1 0 9990 |
L2 | 2 47128 53.0505 239.4939 0004846 283.7936 200.4111 15.46071346 15946 |
Live tracking and technical data element details for STARLINK-1837 (NORAD 47128). STARLINK-1837 can be tracked NOW for your location showing map with azimuth and elevation plus other details from your city location.
Track the satellite on the map from your city or location and see movement details for azimuth, elevation, latitude, longitude, range, height, and movement on the map or in text.
IsCatalogInMostPopularTable: catalog: 47128, numindb: 27
Update: records affected: 1
GetName: 47128 STARLINK-1837
Hit Count: updated at: Tue, 02 Mar 2021 13:53:02 GMT